AV279 Weather Reports


time (UTC)temp
F
wind
direction
speed
knots
gust
knots
rain 1hr
in
rain 24hr
in
rain mn
in
humidity
%
barometer
mb
20260903063819 67 293 3.5 5.2 0.00 0.01 0.00 89 1016.9
20260903062819 67 270 6.1 10.4 0.00 0.01 0.00 89 1016.8
20260903061819 67 248 3.5 6.1 0.00 0.01 0.00 88 1017.0
20260903060830 67 270 3.5 7.0 0.00 0.01 0.00 88 1016.6
20260903055830 67 293 6.1 11.3 0.00 0.01 0.00 88 1016.3
20260903054819 67 270 5.2 18.2 0.00 0.01 0.00 88 1016.1
20260903053849 67 270 4.3 8.7 0.00 0.01 0.00 88 1016.3
20260903052819 67 225 6.1 14.8 0.00 0.01 0.00 87 1016.4
20260903051819 67 248 4.3 7.0 0.00 0.01 0.00 87 1016.4
20260903050819 67 270 2.6 5.2 0.00 0.01 0.00 87 1016.3
20260903045819 67 270 2.6 5.2 0.00 0.01 0.00 86 1016.4
20260903044819 66 270 3.5 5.2 0.00 0.01 0.00 87 1016.4
20260903043819 66 270 3.5 7.0 0.00 0.01 0.00 87 1016.4
20260903042819 66 248 4.3 7.0 0.00 0.01 0.00 87 1016.7
20260903041819 67 248 4.3 8.7 0.00 0.01 0.00 87 1016.5
20260903040819 67 248 2.6 4.3 0.00 0.01 0.00 87 1016.5
20260903035819 67 203 4.3 8.7 0.00 0.01 0.00 87 1016.5
20260903034839 67 225 6.1 17.4 0.00 0.01 0.00 86 1016.4
20260903033819 67 225 3.5 8.7 0.00 0.01 0.00 86 1016.7
20260903032819 67 270 3.5 7.0 0.00 0.01 0.00 86 1016.9
20260903031819 67 270 3.5 7.0 0.00 0.01 0.00 86 1016.7
20260903030829 67 248 3.5 7.0 0.00 0.01 0.00 86 1016.7
20260903025829 67 270 4.3 7.8 0.00 0.01 0.00 86 1016.7
20260903024843 67 270 4.3 6.1 0.00 0.01 0.00 86 1016.6
20260903023829 67 248 4.3 7.0 0.00 0.01 0.00 86 1016.7
20260903022819 67 248 3.5 7.8 0.00 0.01 0.00 86 1016.9
20260903021819 67 270 2.6 5.2 0.00 0.01 0.00 86 1017.0
20260903020839 67 270 5.2 7.8 0.00 0.01 0.00 87 1016.8
20260903015818 67 270 3.5 5.2 0.00 0.01 0.00 86 1017.1
20260903014819 67 270 3.5 7.0 0.00 0.01 0.00 86 1017.2
20260903013912 67 248 4.3 7.8 0.00 0.01 0.00 86 1017.0
20260903012820 67 270 2.6 4.3 0.00 0.01 0.00 86 1017.1
20260903011903 67 270 4.3 7.0 0.00 0.01 0.00 86 1016.8
20260903010839 67 248 3.5 5.2 0.00 0.01 0.00 86 1016.9
20260903005831 67 225 5.2 7.0 0.00 0.01 0.00 86 1016.9
20260903004819 66 225 4.3 6.1 0.00 0.01 0.00 85 1017.1
20260903003820 66 225 3.5 6.1 0.00 0.01 0.00 83 1017.2
20260903002911 66 225 3.5 7.0 0.00 0.01 0.00 82 1017.6
20260903001820 66 225 1.7 4.3 0.00 0.01 0.00 80 1017.6
20260903000818 66 225 3.5 4.3 0.00 0.01 0.00 79 1017.5
20260902235830 66 225 2.6 2.6 0.00 0.01 0.01 79 1017.8
20260902234859 66 225 1.7 4.3 0.00 0.01 0.01 79 1017.6
20260902233829 66 203 4.3 7.8 0.00 0.01 0.01 79 1017.5
20260902232830 66 203 3.5 5.2 0.00 0.01 0.01 80 1017.9
20260902231819 66 225 3.5 5.2 0.00 0.01 0.01 79 1018.2
20260902230830 67 203 3.5 5.2 0.00 0.01 0.01 80 1018.0
20260902225830 67 248 3.5 6.1 0.00 0.01 0.01 80 1017.9
20260902224819 67 248 4.3 6.1 0.00 0.01 0.01 79 1018.1
20260902223819 67 248 3.5 7.0 0.00 0.01 0.01 77 1018.1
20260902222850 67 225 5.2 10.4 0.00 0.01 0.01 77 1018.3
20260902221818 67 225 4.3 7.0 0.00 0.01 0.01 77 1018.2
20260902220819 67 225 5.2 7.8 0.00 0.01 0.01 76 1018.2
20260902215819 67 203 6.1 10.4 0.00 0.01 0.01 77 1018.4
20260902214851 67 225 3.5 6.1 0.00 0.01 0.01 77 1018.4
20260902213819 67 225 4.3 7.0 0.00 0.01 0.01 76 1018.3
20260902212819 67 225 2.6 5.2 0.00 0.01 0.01 76 1018.3
20260902211820 67 225 4.3 6.1 0.00 0.01 0.01 76 1018.5
20260902211015 66 270 2.6 4.3 0.00 0.01 0.01 76 1018.7
20260902205818 66 225 3.5 5.2 0.00 0.01 0.01 76 1018.5
20260902204840 66 248 5.2 7.8 0.00 0.01 0.01 76 1018.5
20260902203818 66 225 5.2 7.8 0.00 0.01 0.01 75 1018.6
20260902202819 66 225 6.1 10.4 0.00 0.01 0.01 75 1018.6
20260902202016 66 225 3.5 5.2 0.00 0.01 0.01 75 1018.7
20260902201020 67 225 3.5 5.2 0.00 0.01 0.01 74 1018.7
20260902200020 67 225 5.2 8.7 0.00 0.01 0.01 73 1018.7
20260902195020 67 225 3.5 6.1 0.00 0.01 0.01 73 1018.8
20260902194020 67 203 4.3 7.8 0.00 0.01 0.01 73 1018.9
20260902193020 67 248 3.5 7.8 0.00 0.01 0.01 72 1018.9
20260902192029 67 225 3.5 6.1 0.00 0.01 0.01 72 1018.8
20260902191039 67 203 3.5 6.1 0.00 0.01 0.01 71 1018.8
20260902190019 67 225 2.6 5.2 0.00 0.01 0.01 71 1018.6
20260902185019 67 225 3.5 6.1 0.00 0.01 0.01 71 1018.7
20260902184020 67 203 2.6 3.5 0.00 0.01 0.01 70 1018.8
20260902183020 67 225 4.3 6.1 0.00 0.01 0.01 70 1018.8
20260902182020 67 203 3.5 7.0 0.00 0.01 0.01 69 1018.7
20260902181020 67 225 3.5 5.2 0.00 0.01 0.01 69 1018.7
20260902180020 68 225 4.3 6.1 0.00 0.01 0.01 67 1018.7
20260902175020 68 225 4.3 6.1 0.00 0.01 0.01 67 1018.7
20260902174050 68 225 3.5 7.8 0.00 0.01 0.01 66 1018.7
20260902173020 69 225 2.6 6.1 0.00 0.01 0.01 67 1019.0
20260902172020 69 225 4.3 6.1 0.00 0.01 0.01 66 1018.9
20260902171020 69 225 4.3 7.0 0.00 0.01 0.01 66 1018.9
20260902170020 69 270 2.6 3.5 0.00 0.01 0.01 65 1019.1
20260902165020 69 270 2.6 4.3 0.00 0.01 0.01 65 1019.0
20260902164226 69 248 3.5 5.2 0.00 0.01 0.01 65 1019.1
20260902163341 70 180 3.5 9.6 0.00 0.01 0.01 66 1019.1
20260902162320 70 225 3.5 11.3 0.00 0.01 0.01 64 1019.3
20260902161320 70 270 5.2 12.2 0.00 0.01 0.01 66 1019.4
20260902160342 70 270 3.5 6.1 0.00 0.01 0.01 66 1019.4
20260902155340 70 248 4.3 8.7 0.00 0.01 0.01 66 1019.3
20260902154320 71 248 5.2 11.3 0.00 0.01 0.01 66 1019.5
20260902153320 71 270 3.5 8.7 0.00 0.01 0.01 66 1019.5
20260902152331 71 293 2.6 4.3 0.00 0.01 0.01 67 1019.5
20260902151403 71 225 4.3 8.7 0.00 0.01 0.01 68 1019.6
20260902150320 71 248 3.5 7.8 0.00 0.01 0.01 69 1019.7
20260902145341 71 225 2.6 5.2 0.00 0.01 0.01 69 1019.6
20260902144320 71 248 3.5 7.0 0.00 0.01 0.01 69 1019.7
20260902143330 71 225 4.3 8.7 0.00 0.01 0.01 69 1019.7
20260902142330 72 270 2.6 5.2 0.00 0.01 0.01 68 1019.8
20260902141320 71 248 1.7 3.5 0.00 0.01 0.01 71 1019.8
20260902140320 71 248 2.6 3.5 0.00 0.01 0.01 69 1019.9
20260902135320 71 248 2.6 5.2 0.00 0.01 0.01 70 1019.9
20260902134330 71 270 2.6 5.2 0.00 0.01 0.01 70 1019.8
20260902133330 71 270 1.7 2.6 0.00 0.01 0.01 71 1019.8
20260902132352 70 225 5.2 8.7 0.00 0.01 0.01 72 1019.9
20260902131330 69 180 4.3 7.8 0.00 0.01 0.01 73 1020.0
20260902130330 69 248 3.5 7.0 0.00 0.01 0.01 73 1020.0
20260902125320 70 248 2.6 5.2 0.00 0.01 0.01 73 1019.9
20260902124320 71 248 4.3 7.8 0.00 0.01 0.01 70 1020.0
20260902123319 71 270 1.7 2.6 0.00 0.01 0.01 73 1020.0
20260902122320 70 270 1.7 3.5 0.00 0.01 0.01 73 1019.9
20260902121319 70 248 4.3 6.1 0.00 0.01 0.01 75 1020.1
20260902120359 70 248 1.7 3.5 0.00 0.01 0.01 74 1020.1
20260902115330 70 270 2.6 3.5 0.00 0.01 0.01 72 1020.0
20260902114320 71 248 1.7 2.6 0.00 0.01 0.01 74 1020.1
20260902113320 71 158 1.7 4.3 0.00 0.01 0.01 75 1020.1
20260902112320 70 248 2.6 3.5 0.00 0.01 0.01 76 1020.3
20260902111320 70 203 1.7 3.5 0.00 0.01 0.01 79 1020.3
20260902110341 69 248 1.7 3.5 0.00 0.01 0.01 83 1020.2
20260902105331 68 270 1.7 5.2 0.00 0.01 0.01 86 1020.5
20260902104320 67 270 0.9 1.7 0.00 0.01 0.01 88 1020.5
20260902103331 66 270 1.7 2.6 0.00 0.01 0.01 89 1020.6
20260902102353 65 203 1.7 3.5 0.01 0.01 0.01 91 1020.7
20260902101319 64 203 1.7 3.5 0.01 0.01 0.01 91 1020.7
20260902100320 63 203 1.7 2.6 0.01 0.01 0.01 91 1020.8
20260902095319 63 225 0.9 1.7 0.01 0.01 0.01 90 1020.8
20260902094321 63 225 0.9 0.9 0.01 0.01 0.01 89 1020.9
20260902093319 63 0 0.9 0.9 0.01 0.01 0.01 86 1020.8
20260902092322 64 315 0.9 1.7 0.00 0.00 0.00 83 1020.9
20260902091518 64 248 3.5 5.2 0.00 0.00 0.00 83 1020.8
20260902090931 64 225 4.3 6.1 0.00 0.00 0.00 82 1020.7
20260902090117 64 248 2.6 5.2 0.00 0.00 0.00 83 1020.6
20260902085403 64 225 3.5 7.0 0.00 0.00 0.00 83 1020.5
20260902084420 64 225 5.2 7.0 0.00 0.00 0.00 84 1020.5
20260902083420 64 248 2.6 5.2 0.00 0.00 0.00 85 1020.4
20260902082454 64 248 3.5 5.2 0.00 0.00 0.00 87 1020.1
20260902081420 63 225 2.6 3.5 0.00 0.00 0.00 88 1019.9
20260902080430 63 225 2.6 5.2 0.00 0.00 0.00 88 1019.9
20260902075419 63 225 3.5 6.1 0.00 0.00 0.00 88 1019.9
20260902074430 63 203 2.6 5.2 0.00 0.00 0.00 88 1019.9
20260902073419 63 248 1.7 2.6 0.00 0.00 0.00 89 1019.9
20260902072421 63 203 1.7 3.5 0.00 0.00 0.00 89 1019.6
20260902071419 62 225 1.7 3.5 0.00 0.00 0.00 90 1019.7
20260902070419 61 225 2.6 4.3 0.00 0.00 0.00 91 1019.6
20260902065420 61 203 3.5 5.2 0.00 0.00 0.00 91 1019.7
20260902064628 60 225 1.7 3.5 0.00 0.00 0.00 92 1019.7